Location: Bergnershof
(48.9468°N, 10.9431°E)
Time: 00:12:08
(UTC+00:00)

SJ 16-02 - Pass Details

Date: 03 March 2021
Orbit: 605 x 617 km, 75.0° (Epoch: 13 April)

Event Time Altitude Azimuth Distance (km) Brightness Sun altitude
Rises 17:55:50 0° 351° (N) 2,884 4.9 -9.5°
Reaches altitude 10° 17:59:25 10° 21° (NNE) 1,977 3.8 -10.1°
Maximum altitude 18:01:18 12° 47° (NE) 1,818 3.4 -10.4°
Enters shadow 18:02:33 11° 64° (ENE) 1,888 3.3 -10.6°
